This is the latest recevied weather packets stored in our database for station/object VE3TEJ. If no packets are shown the sender has not sent any weather packets the latest 10 day(s).
| Time | Temp. | Humidity | Pressure | Rain* | Wind** | Luminosity | Snow |
|---|---|---|---|---|---|---|---|
| 1778007847 | 9.44° C | 80% | 1006 hPa | 0.76 mm | - | - | - |
| 1778007549 | 9.44° C | 78% | 1006.2 hPa | 0.76 mm | - | - | - |
| 1778007248 | 10° C | 75% | 1006.3 hPa | 0.51 mm | - | - | - |
| 1778006948 | 10° C | 73% | 1006.2 hPa | 0.25 mm | - | - | - |
| 1778006647 | 10.56° C | 72% | 1005.9 hPa | 0.25 mm | - | - | - |
| 1778006348 | 10° C | 71% | 1005.7 hPa | 0.25 mm | - | - | - |
| 1778006048 | 10° C | 71% | 1006.2 hPa | 0.25 mm | - | - | - |
| 1778005747 | 10.56° C | 70% | 1006.3 hPa | 0 mm | - | - | - |
| 1778005449 | 11.11° C | 68% | 1006.1 hPa | 0 mm | - | - | - |
| 1778005149 | 11.11° C | 64% | 1006.3 hPa | 0 mm | - | - | - |
| 1778004848 | 11.67° C | 66% | 1005.9 hPa | 0 mm | - | - | - |
| 1778004548 | 11.67° C | 63% | 1005.9 hPa | 0 mm | - | - | - |
| 1778004247 | 11.67° C | 65% | 1005.8 hPa | 0 mm | - | - | - |
| 1778003949 | 12.22° C | 63% | 1005.5 hPa | 0 mm | - | - | - |
| 1778003648 | 12.22° C | 63% | 1005.6 hPa | 0 mm | - | - | - |
| 1778003348 | 12.22° C | 60% | 1005.4 hPa | 0 mm | - | - | - |
| 1778003048 | 12.78° C | 59% | 1005.7 hPa | 0 mm | - | - | - |
| 1778002747 | 12.78° C | 58% | 1005.8 hPa | 0 mm | - | - | - |
| 1778002449 | 12.78° C | 59% | 1005.8 hPa | 0 mm | - | - | - |
| 1778002148 | 13.33° C | 58% | 1005.5 hPa | 0 mm | - | - | - |
| 1778001848 | 13.33° C | 60% | 1005.3 hPa | 0 mm | - | - | - |
| 1778001548 | 13.89° C | 60% | 1005.3 hPa | 0 mm | - | - | - |
| 1778001247 | 13.89° C | 60% | 1005 hPa | 0 mm | - | - | - |
| 1778000949 | 13.89° C | 60% | 1004.9 hPa | 0 mm | - | - | - |
| 1778000648 | 14.44° C | 62% | 1004.9 hPa | 0 mm | - | - | - |
* Rain latest hour (hover to see other rain measurements)
** Current wind speed in m/s (hover to see current wind gust speed)